Location: Prague
(50.0830°N, 14.4670°E)
Time: 20:45:55
(UTC+02:00)

ISS - Pass Details

Date: 26 September 2021
Orbit: 417 x 423 km, 51.6° (Epoch: 28 October)

Event Time Altitude Azimuth Distance (km) Brightness Sun altitude
Rises 20:57:11 0° 283° (WNW) 2,367 1.6 -20.5°
Reaches altitude 10° 20:59:17 10° 285° (WNW) 1,503 0.2 -20.9°
Enters shadow 21:02:20 69° 312° (NW) 453 -3.5 -21.3°
